RS32S (SXC3-212 MONITO*)

Last updated on Wed Jul 12 2023 00:03:08 GMT+0000 (Coordinated Universal Time)

1 53374U 22096E 23192.42717249 .00025666 00000+0 65475-3 0 9998 2 53374 97.4084 98.8616 0003829 90.0262 270.1423 15.39489884 51414
UTC large
Height (km)
Speed (km/s)
/
Latitude / Longitude
Inclination (degrees)
Orbital Period (minutes)
Azimuth
Elevation
Range (km)
Doppler Factor

Next 0 passes for location: London (51.5072 / 0.1276)

Sorry there are no passes over London.